Akron, OH

5:58 AM EDT on August 18, 2017 (GMT -0400)
Akron Fulton International

Weather History for KAKR - March, 2013

Change the Weather History Date:

Tuesday, March 26, 2013

  Actual Average (KCAK) Record (KCAK)
Temperature  
Mean Temperature 36 °F -  
Max Temperature 39 °F 49 °F 78 °F (1967)
Min Temperature 32 °F 29 °F 10 °F (2001)
Degree Days  
Heating Degree Days 30    
Moisture  
Dew Point 29 °F    
Average Humidity 83    
Maximum Humidity 93    
Minimum Humidity 62    
Precipitation  
Precipitation 0.00 in - - ()
Sea Level Pressure  
Sea Level Pressure 29.96 in    
Wind  
Wind Speed 8 mph (NW)    
Max Wind Speed 15 mph    
Max Gust Speed 20 mph    
Visibility 8 miles    
Events Snow    
Averages and records for this station are not official NWS values.
T = Trace of Precipitation, MM = Missing Value Source: NWS Daily Summary

Daily Weather History Graph

Daily Weather History Graph

Search for Another Location

Airport or City:

Trip Planner

Search our weather history database for the weather conditions in past years. The results will help you decide how hot, cold, wet, or windy it might be!

Date:

Astronomy

Mar. 26, 2013 Rise Set
Actual Time 7:18 AM EDT 7:44 PM EDT
Civil Twilight 6:51 AM EDT 8:12 PM EDT
Nautical Twilight 6:18 AM EDT 8:44 PM EDT
Astronomical Twilight 5:45 AM EDT 9:18 PM EDT
Moon 7:20 PM EDT (3/26) 6:34 AM EDT (3/26)
Length of Visible Light 13h 21m
Length of Day
12h 25m
Waxing Gibbous, 99% of the Moon is Illuminated
Mar 26
Waxing Gibbous
Mar 27
Full
Apr 3
Last Quarter
Apr 10
New
Apr 18
First Quarter

Hourly Weather History & Observations

Time (EDT) Temp. Windchill Dew Point Humidity Pressure Visibility Wind Dir Wind Speed Gust Speed Precip Events Conditions
12:03 AM 32.0 °F 27.5 °F 30.2 °F 93% 29.80 in 5.0 mi NNW 4.6 mph - N/A   Overcast
12:16 AM 32.0 °F 26.4 °F 30.2 °F 93% 29.80 in 7.0 mi NNW 5.8 mph - N/A   Overcast
12:54 AM 32.0 °F 26.4 °F 30.0 °F 92% 29.84 in 9.0 mi NW 5.8 mph - N/A   Overcast
1:14 AM 32.0 °F 27.5 °F 30.2 °F 93% 29.81 in 8.0 mi NW 4.6 mph - N/A   Overcast
1:54 AM 32.0 °F 27.5 °F 30.0 °F 92% 29.85 in 7.0 mi WNW 4.6 mph - N/A   Overcast
2:54 AM 32.0 °F 25.6 °F 28.9 °F 88% 29.86 in 9.0 mi NNW 6.9 mph - N/A   Overcast
3:54 AM 32.0 °F 25.6 °F 28.9 °F 88% 29.86 in 10.0 mi NW 6.9 mph - N/A   Overcast
4:54 AM 32.0 °F 24.2 °F 28.9 °F 88% 29.87 in 10.0 mi NW 9.2 mph - N/A   Overcast
5:17 AM 32.0 °F 25.6 °F 28.4 °F 87% 29.85 in 10.0 mi NW 6.9 mph - N/A   Overcast
5:46 AM 32.0 °F 25.6 °F 28.4 °F 87% 29.86 in 10.0 mi NW 6.9 mph - N/A   Overcast
5:54 AM 32.0 °F 25.6 °F 28.9 °F 88% 29.89 in 10.0 mi NW 6.9 mph - N/A   Overcast
6:54 AM 32.0 °F 23.6 °F 28.9 °F 88% 29.91 in 10.0 mi WNW 10.4 mph - N/A   Overcast
7:03 AM 32.0 °F 24.8 °F 28.4 °F 87% 29.88 in 10.0 mi WNW 8.1 mph - N/A   Overcast
7:12 AM 32.0 °F 24.8 °F 28.4 °F 87% 29.89 in 10.0 mi NW 8.1 mph - N/A   Overcast
7:54 AM 32.0 °F 24.2 °F 28.9 °F 88% 29.94 in 10.0 mi NW 9.2 mph - N/A   Overcast
8:54 AM 32.0 °F 24.2 °F 28.9 °F 88% 29.96 in 10.0 mi NW 9.2 mph - N/A   Overcast
9:54 AM 33.1 °F 26.1 °F 28.9 °F 85% 29.97 in 4.0 mi NW 8.1 mph - 0.00 in Snow Light Snow
9:59 AM 33.8 °F 27.0 °F 30.2 °F 87% 29.95 in 1.8 mi NW 8.1 mph - 0.00 in Snow Light Snow
10:11 AM 33.8 °F 27.0 °F 30.2 °F 87% 29.95 in 3.0 mi NW 8.1 mph - 0.00 in Snow Light Snow
10:40 AM 33.8 °F 26.4 °F 30.2 °F 87% 29.96 in 1.8 mi NW 9.2 mph - 0.00 in Snow Light Snow
10:49 AM 33.8 °F 24.8 °F 30.2 °F 87% 29.96 in 3.0 mi NW 12.7 mph - 0.00 in Snow Light Snow
10:54 AM 34.0 °F 26.0 °F 30.0 °F 85% 29.99 in 5.0 mi NW 10.4 mph - 0.00 in Snow Light Snow
11:54 AM 35.1 °F 27.4 °F 30.0 °F 82% 30.01 in 10.0 mi NNW 10.4 mph - 0.00 in   Overcast
12:54 PM 36.0 °F 29.0 °F 30.0 °F 79% 30.01 in 10.0 mi NNW 9.2 mph - 0.00 in   Overcast
1:09 PM 35.6 °F 26.6 °F 30.2 °F 81% 29.99 in 10.0 mi NW 13.8 mph - N/A   Overcast
1:36 PM 35.6 °F 29.2 °F 30.2 °F 81% 29.99 in 10.0 mi NW 8.1 mph - N/A   Overcast
1:52 PM 35.6 °F 29.9 °F 30.2 °F 81% 29.99 in 10.0 mi WNW 6.9 mph - N/A   Overcast
1:54 PM 36.0 °F 28.5 °F 30.9 °F 82% 30.02 in 10.0 mi WNW 10.4 mph - N/A   Overcast
2:54 PM 37.0 °F 31.6 °F 30.0 °F 76% 30.02 in 10.0 mi NW 6.9 mph - N/A   Overcast
3:54 PM 39.0 °F 31.0 °F 28.9 °F 67% 30.01 in 10.0 mi NW 13.8 mph 19.6 mph N/A   Overcast
4:54 PM 39.9 °F 31.8 °F 28.0 °F 63% 30.02 in 10.0 mi NNW 15.0 mph - N/A   Overcast
5:54 PM 39.0 °F 31.8 °F 27.0 °F 62% 30.02 in 10.0 mi WNW 11.5 mph - N/A   Overcast
6:54 PM 37.0 °F 29.3 °F 28.0 °F 70% 30.04 in 10.0 mi West 11.5 mph - N/A   Mostly Cloudy
7:54 PM 36.0 °F 30.3 °F 28.0 °F 73% 30.06 in 10.0 mi WNW 6.9 mph - N/A   Overcast
8:54 PM 35.1 °F 28.6 °F 28.0 °F 76% 30.08 in 10.0 mi WNW 8.1 mph - N/A   Mostly Cloudy
9:54 PM 35.1 °F 27.4 °F 28.9 °F 78% 30.09 in 10.0 mi West 10.4 mph - N/A   Overcast
10:36 PM 35.6 °F 28.0 °F 28.4 °F 75% 30.07 in 10.0 mi West 10.4 mph - N/A   Overcast
10:54 PM 34.0 °F 27.2 °F 28.9 °F 82% 30.10 in 10.0 mi WNW 8.1 mph - N/A   Overcast
11:09 PM 33.8 °F 25.8 °F 30.2 °F 87% 30.07 in 5.0 mi WNW 10.4 mph - 0.00 in Snow Light Snow
11:54 PM 34.0 °F 26.6 °F 30.0 °F 85% 30.10 in 4.0 mi West 9.2 mph - 0.00 in Snow Light Snow